カタログに戻る

COSMOS 2251 DEB

運用中LEO
NORAD 37996·DEBRIS·🇷🇺 Russia

打ち上げ Jun 16, 1993 から Plesetsk Cosmodrome

Loading…

次のパス (今後24時間)

TLE

古いSource: Space-Track

元期: Aug 29, 2026, 07:13 UTC

1 37996U 93036BQX 26241.30137163  .00006680  00000-0  27903-2 0  9997
2 37996  74.0618 104.8895 0220706 153.3506 207.9186 14.14023779598000

AllMySatでCOSMOS 2251 DEBをリアルタイム追跡

Download on the App Store